DAL8806 KLAS-KMSP

Flight info

Callsign DAL8806
Flight time N/A
Altitude 35000
Route GIDGT3 TUKRR DCT HBU DCT SNY DCT SSWAN TORGY4
Aircraft A321/M-SDE3FGHIRWY/LB1

Departure

Time 2026-05-05 19:38
Airport Harry Reid International Airport (KLAS)

Arrival

Time N/A
Airport Minneapolis–Saint Paul International Airport / Wold–Chamberlain Field (KMSP)
Time Latitude Longitude Altitude Speed Heading
2026-05-05 19:12 36.08525 -115.13561 2093 ft 0 kts
2026-05-05 19:27 36.08523 -115.13561 2092 ft 2 kts
2026-05-05 19:27 36.08498 -115.13561 2092 ft 4 kts
2026-05-05 19:27 36.08473 -115.13561 2092 ft 1 kts
2026-05-05 19:28 36.08452 -115.13565 2092 ft 4 kts 41°
2026-05-05 19:28 36.08443 -115.13588 2092 ft 4 kts 90°
2026-05-05 19:28 36.08443 -115.13610 2092 ft 0 kts 90°
2026-05-05 19:30 36.08443 -115.13596 2092 ft 9 kts 90°
2026-05-05 19:30 36.08426 -115.13441 2093 ft 22 kts 114°
2026-05-05 19:30 36.08335 -115.13305 2092 ft 20 kts 150°
2026-05-05 19:31 36.08185 -115.13289 2088 ft 26 kts 180°
2026-05-05 19:31 36.08047 -115.13291 2088 ft 12 kts 180°
2026-05-05 19:31 36.08014 -115.13291 2088 ft 0 kts 179°
2026-05-05 19:31 36.08009 -115.13291 2088 ft 5 kts 179°
2026-05-05 19:32 36.07932 -115.13290 2088 ft 13 kts 179°
2026-05-05 19:32 36.07847 -115.13266 2087 ft 16 kts 130°
2026-05-05 19:32 36.07828 -115.13077 2081 ft 27 kts 90°
2026-05-05 19:32 36.07829 -115.12835 2071 ft 29 kts 90°
2026-05-05 19:33 36.07830 -115.12583 2061 ft 27 kts 90°
2026-05-05 19:33 36.07829 -115.12402 2057 ft 15 kts 90°
2026-05-05 19:33 36.07829 -115.12323 2055 ft 0 kts 90°
2026-05-05 19:34 36.07824 -115.12271 2053 ft 14 kts 105°
2026-05-05 19:34 36.07747 -115.12140 2054 ft 22 kts 143°
2026-05-05 19:34 36.07642 -115.12158 2049 ft 12 kts 252°
2026-05-05 19:35 36.07640 -115.12190 2049 ft 0 kts 270°
2026-05-05 19:36 36.07644 -115.12262 2051 ft 34 kts 275°
2026-05-05 19:37 36.07638 -115.12831 2072 ft 95 kts 269°
2026-05-05 19:37 36.07638 -115.13858 2093 ft 142 kts 270°
2026-05-05 19:37 36.07644 -115.15241 2111 ft 178 kts 269°
2026-05-05 19:37 36.07628 -115.16765 2738 ft 164 kts 265°
2026-05-05 19:38 36.07611 -115.18209 3306 ft 169 kts 269°
2026-05-05 19:38 36.07646 -115.19663 3846 ft 172 kts 269°
2026-05-05 19:38 36.07652 -115.21210 4067 ft 189 kts 268°
2026-05-05 19:38 36.07649 -115.22919 4189 ft 208 kts 269°
2026-05-05 19:39 36.07645 -115.24763 4398 ft 220 kts 269°
2026-05-05 19:39 36.07784 -115.26668 4806 ft 228 kts 290°
2026-05-05 19:39 36.08713 -115.28245 5316 ft 235 kts 324°
2026-05-05 19:39 36.10266 -115.29051 5608 ft 251 kts 343°
2026-05-05 19:40 36.11972 -115.29566 6174 ft 257 kts 349°
2026-05-05 19:40 36.13761 -115.29594 6792 ft 261 kts 14°
2026-05-05 19:40 36.15423 -115.28724 7474 ft 263 kts 35°
2026-05-05 19:40 36.16753 -115.27083 7845 ft 278 kts 59°
2026-05-05 19:41 36.17609 -115.24919 8460 ft 282 kts 70°
2026-05-05 19:41 36.18308 -115.22645 9160 ft 284 kts 69°
2026-05-05 19:41 36.19026 -115.20360 9890 ft 287 kts 69°
2026-05-05 19:41 36.19532 -115.17960 10525 ft 290 kts 82°
2026-05-05 19:42 36.19624 -115.15429 10946 ft 303 kts 89°
2026-05-05 19:42 36.19638 -115.12727 11093 ft 325 kts 89°
2026-05-05 19:42 36.19639 -115.09837 11288 ft 342 kts 90°
2026-05-05 19:42 36.19633 -115.06873 11838 ft 348 kts 90°
2026-05-05 19:43 36.19627 -115.03860 12453 ft 352 kts 90°
2026-05-05 19:43 36.19621 -115.00817 13087 ft 355 kts 90°
2026-05-05 19:43 36.19618 -114.97748 13745 ft 357 kts 90°
2026-05-05 19:43 36.19614 -114.94659 14315 ft 360 kts 90°
2026-05-05 19:44 36.19613 -114.91542 14903 ft 363 kts 90°
2026-05-05 19:44 36.19614 -114.88427 15503 ft 364 kts 90°
2026-05-05 19:44 36.19611 -114.85276 16060 ft 367 kts 90°
2026-05-05 19:44 36.19606 -114.82099 16599 ft 371 kts 90°
2026-05-05 19:45 36.19601 -114.78904 17181 ft 372 kts 90°
2026-05-05 19:45 36.19595 -114.75681 17709 ft 376 kts 90°
2026-05-05 19:45 36.19586 -114.72436 18232 ft 378 kts 90°
2026-05-05 19:45 36.19575 -114.69169 18714 ft 380 kts 90°
2026-05-05 19:46 36.19566 -114.65880 19171 ft 383 kts 90°
2026-05-05 19:46 36.19558 -114.62572 19646 ft 385 kts 89°
2026-05-05 19:46 36.19554 -114.59283 20118 ft 387 kts 89°
2026-05-05 19:46 36.19550 -114.55938 20575 ft 390 kts 89°
2026-05-05 19:47 36.19544 -114.52611 21019 ft 392 kts 89°
2026-05-05 19:47 36.19535 -114.49186 21495 ft 394 kts 89°
2026-05-05 19:47 36.19523 -114.45825 21933 ft 397 kts 89°
2026-05-05 19:47 36.19511 -114.42403 22391 ft 399 kts 89°
2026-05-05 19:48 36.19496 -114.38962 22832 ft 401 kts 89°
2026-05-05 19:48 36.19481 -114.35496 23254 ft 403 kts 90°
2026-05-05 19:48 36.19463 -114.32017 23641 ft 405 kts 89°
2026-05-05 19:48 36.19447 -114.28518 23978 ft 407 kts 89°
2026-05-05 19:49 36.19439 -114.24985 24301 ft 410 kts 87°
2026-05-05 19:49 36.19586 -114.22662 24538 ft 411 kts 81°
2026-05-05 19:49 36.20156 -114.17976 24950 ft 413 kts 81°
2026-05-05 19:49 36.20584 -114.14455 25280 ft 416 kts 81°
2026-05-05 19:50 36.21009 -114.10893 25628 ft 419 kts 81°
2026-05-05 19:50 36.21434 -114.07316 25993 ft 421 kts 81°
2026-05-05 19:50 36.21860 -114.03717 26272 ft 424 kts 81°
2026-05-05 19:50 36.22288 -114.00094 26570 ft 427 kts 81°
2026-05-05 19:51 36.22715 -113.96464 26863 ft 430 kts 81°
2026-05-05 19:51 36.23146 -113.92787 27176 ft 432 kts 81°